Regional Weather Roundup
Issued by NWS

Home | Current Version | Previous Version | Graphics & Text | Print | Product List | Glossary Off
Versions: 1 2 3 4 5 6 7 8 9 10 11 12 13 14 15 16 17 18 19 20 21 22 23 24 25 26 27 28 29 30 31 32 33 34 35 36 37 38 39 40 41 42 43 44 45 46 47 48 49 50

000
ASUS43 KLSX 270907
RWRMO

WEATHER SUMMARY FOR MISSOURI
NATIONAL WEATHER SERVICE SPRINGFIELD MO
400 AM CDT WED JUL 27 2016

NOTE: "FAIR" INDICATES FEW OR NO CLOUDS BELOW 12,000 FEET WITH NO
       SIGNIFICANT WEATHER AND/OR OBSTRUCTIONS TO VISIBILITY.
       CURRENT SKY AND/OR WEATHER CONDITIONS ARE NOT AVAILABLE FOR
       CHILLICOTHE AND FARMINGTON.

MOZ001>031-035>038-043-044-053-054-271000-
...NORTHERN AND WESTERN MISSOURI...

CITY           SKY/WX    TMP DP  RH WIND       PRES   REMARKS
KANSAS CTY INT CLEAR     70  66  87 E5        30.00S
KANSAS C DTWN  PTCLDY    74  67  78 CALM      29.99R
LEE`S SUMMIT   MOCLDY    72  68  87 N6        30.01R
ST JOSEPH      CLOUDY    66  64  93 NE3       30.01S
CHILLICOTHE      N/A     68  66  93 CALM      30.01S
KIRKSVILLE     PTCLDY    63  62  97 N3        30.02R

$$
MOZ066>068-077>081-088>096-101>105-271000-
...SOUTHWEST MISSOURI...

CITY           SKY/WX    TMP DP  RH WIND       PRES   REMARKS
SPRINGFIELD    MOCLDY    73  70  90 SE5       29.99S
JOPLIN         CLEAR     72  71  97 NE5       29.98R FOG
BRANSON        FOG       73  73 100 SE5       30.00F VSB 3/4

$$
MOZ032>034-039>042-045>050-055>058-069>072-271000-
...CENTRAL MISSOURI...

CITY           SKY/WX    TMP DP  RH WIND       PRES   REMARKS
COLUMBIA       CLOUDY    73  72  96 CALM      30.00R
JEFFERSON CITY PTCLDY    73  71  93 CALM      29.98R
ROLLA          CLOUDY    71  71 100 SE3       29.99R
SEDALIA        CLOUDY    73  70  90 CALM      30.00R
WHITEMAN AFB   MOCLDY    71  71 100 E2        29.98R
OSAGE BEACH    CLOUDY    71  71 100 CALM      30.00R FOG

$$
MOZ051-052-059>065-271000-
...EAST CENTRAL MISSOURI...

CITY           SKY/WX    TMP DP  RH WIND       PRES   REMARKS
ST LOUIS INTL  CLOUDY    79  74  84 S5        29.98R
SPIRIT OF STL  CLOUDY    75  74  96 CALM      29.97R
ST CHARLES     PTCLDY    76  75  97 CALM      29.97R

$$
MOZ072>076-082>087-097>100-106>115-271000-
...SOUTH CENTRAL AND SOUTHEAST MISSOURI...

CITY           SKY/WX    TMP DP  RH WIND       PRES   REMARKS
CAPE GIRARDEAU CLOUDY    73  72  96 CALM      29.96S FOG
FARMINGTON     FOG       71  71 100 SE3       30.01R VSB 1/4
POPLAR BLUFF   MOCLDY    74  72  93 CALM      29.96R
WEST PLAINS    CLEAR     72  69  90 CALM      30.02R

$$



USA.gov is the U.S. government's official web portal to all federal, state and local government web resources and services.